This is the latest recevied weather packets stored in our database for station/object N5GMJ. If no packets are shown the sender has not sent any weather packets the latest 10 day(s).
| Time | Temp. | Humidity | Pressure | Rain* | Wind** | Luminosity | Snow |
|---|---|---|---|---|---|---|---|
| 1777657390 | 16.67° C | 61% | 1017.9 hPa | 0 mm | - | - | - |
| 1777657089 | 17.22° C | 64% | 1018.2 hPa | 0 mm | - | - | - |
| 1777656786 | 16.67° C | 65% | 1018 hPa | 0 mm | - | - | - |
| 1777656481 | 16.67° C | 65% | 1018.3 hPa | 0 mm | - | - | - |
| 1777656176 | 16.67° C | 66% | 1018.5 hPa | 0 mm | - | - | - |
| 1777655872 | 16.67° C | 65% | 1018.4 hPa | 0 mm | - | - | - |
| 1777655569 | 16.67° C | 69% | 1018.5 hPa | 0 mm | - | - | - |
| 1777655266 | 16.11° C | 70% | 1018.3 hPa | 0 mm | - | - | - |
| 1777654963 | 16.67° C | 69% | 1018.8 hPa | 0 mm | - | - | - |
| 1777654660 | 16.67° C | 68% | 1018.5 hPa | 0 mm | - | - | - |
| 1777654358 | 16.67° C | 71% | 1018.4 hPa | 0 mm | - | - | - |
| 1777654056 | 16.11° C | 71% | 1018.7 hPa | 0 mm | - | - | - |
| 1777653752 | 16.11° C | 71% | 1018.9 hPa | 0 mm | - | - | - |
| 1777653448 | 16.11° C | 72% | 1018.9 hPa | 0 mm | - | - | - |
| 1777653146 | 16.67° C | 73% | 1018.9 hPa | 0 mm | - | - | - |
| 1777652841 | 17.22° C | 75% | 1018.5 hPa | 0 mm | - | - | - |
| 1777652538 | 15.56° C | 73% | 1018.9 hPa | 0 mm | - | - | - |
| 1777652236 | 16.11° C | 74% | 1018.8 hPa | 0 mm | - | - | - |
| 1777651933 | 16.11° C | 71% | 1018.8 hPa | 0 mm | - | - | - |
| 1777651629 | 15.56° C | 76% | 1019 hPa | 0 mm | - | - | - |
| 1777651326 | 15.56° C | 76% | 1019 hPa | 0 mm | - | - | - |
| 1777651023 | 15° C | 77% | 1019 hPa | 0 mm | - | - | - |
| 1777650720 | 15° C | 79% | 1019.3 hPa | 0 mm | - | - | - |
| 1777650417 | 14.44° C | 81% | 1019.3 hPa | 1.27 mm | - | - | - |
| 1777650114 | 14.44° C | 82% | 1019.1 hPa | 0 mm | - | - | - |
* Rain latest hour (hover to see other rain measurements)
** Current wind speed in m/s (hover to see current wind gust speed)